Alexander City, AL

2:24 PM CDT on July 22, 2017 (GMT -0500)
Russell

Weather History for KALX - October, 2013

Change the Weather History Date:

Friday, October 18, 2013

  Actual Average (KAUO) Record (KAUO)
Temperature  
Mean Temperature 68 °F -  
Max Temperature 75 °F 74 °F 86 °F (2006)
Min Temperature 60 °F 50 °F 31 °F (1977)
Cooling Degree Days 2    
Growing Degree Days 18 (Base 50)    
Moisture  
Dew Point 55 °F    
Average Humidity 68    
Maximum Humidity 88    
Minimum Humidity 39    
Precipitation  
Precipitation 0.00 in - - ()
Sea Level Pressure  
Sea Level Pressure 30.00 in    
Wind  
Wind Speed 4 mph (North)    
Max Wind Speed 9 mph    
Max Gust Speed -    
Visibility 10 miles    
Events      
Averages and records for this station are not official NWS values.
T = Trace of Precipitation, MM = Missing Value Source: NWS Daily Summary

Daily Weather History Graph

Daily Weather History Graph

Search for Another Location

Airport or City:

Trip Planner

Search our weather history database for the weather conditions in past years. The results will help you decide how hot, cold, wet, or windy it might be!

Date:

Astronomy

Oct. 18, 2013 Rise Set
Actual Time 6:50 AM CDT 6:06 PM CDT
Civil Twilight 6:25 AM CDT 6:31 PM CDT
Nautical Twilight 5:56 AM CDT 7:00 PM CDT
Astronomical Twilight 5:28 AM CDT 7:29 PM CDT
Moon 5:57 PM CDT (10/18) 6:25 AM CDT (10/18)
Length of Visible Light 12h 06m
Length of Day
11h 16m
Full, 100% of the Moon is Illuminated
Oct 18
Full
Oct 18
Full
Oct 26
Last Quarter
Nov 3
New
Nov 9
First Quarter

Hourly Weather History & Observations

Time (CDT) Temp. Dew Point Humidity Pressure Visibility Wind Dir Wind Speed Gust Speed Precip Events Conditions
12:15 AM 68.0 °F 62.2 °F 82% 29.97 in 10.0 mi Calm Calm - N/A   Overcast
12:35 AM 68.0 °F 62.2 °F 82% 29.97 in 10.0 mi NNW 3.5 mph - N/A   Overcast
12:55 AM 68.0 °F 62.4 °F 82% 29.97 in 10.0 mi North 5.8 mph - N/A   Overcast
1:15 AM 68.0 °F 62.6 °F 83% 29.97 in 10.0 mi NNW 6.9 mph - N/A   Overcast
1:35 AM 65.5 °F 60.8 °F 85% 29.97 in 10.0 mi NNW 5.8 mph - N/A   Mostly Cloudy
1:55 AM 65.5 °F 61.0 °F 85% 29.98 in 10.0 mi North 3.5 mph - N/A   Mostly Cloudy
2:15 AM 65.5 °F 61.7 °F 88% 29.98 in 10.0 mi North 4.6 mph - N/A   Mostly Cloudy
2:35 AM 65.5 °F 61.2 °F 86% 29.98 in 10.0 mi North 4.6 mph - N/A   Overcast
2:55 AM 65.5 °F 61.2 °F 86% 29.98 in 10.0 mi North 6.9 mph - N/A   Overcast
3:15 AM 65.5 °F 60.8 °F 85% 29.98 in 10.0 mi North 5.8 mph - N/A   Overcast
3:35 AM 65.5 °F 60.8 °F 85% 29.98 in 10.0 mi North 8.1 mph - N/A   Overcast
3:55 AM 63.7 °F 58.3 °F 83% 29.99 in 10.0 mi North 5.8 mph - N/A   Overcast
4:15 AM 63.5 °F 58.3 °F 83% 29.98 in 10.0 mi North 3.5 mph - N/A   Overcast
4:35 AM 63.3 °F 57.7 °F 82% 29.99 in 10.0 mi Calm Calm - N/A   Overcast
4:55 AM 62.8 °F 57.4 °F 82% 29.99 in 10.0 mi North 3.5 mph - N/A   Overcast
5:15 AM 62.8 °F 57.7 °F 84% 30.00 in 10.0 mi Calm Calm - N/A   Overcast
5:35 AM 62.8 °F 58.5 °F 86% 30.01 in 10.0 mi North 5.8 mph - N/A   Overcast
5:55 AM 61.7 °F 57.2 °F 85% 30.01 in 10.0 mi North 5.8 mph - N/A   Overcast
6:15 AM 61.7 °F 56.5 °F 83% 30.01 in 10.0 mi North 4.6 mph - N/A   Overcast
6:35 AM 61.7 °F 56.1 °F 82% 30.02 in 10.0 mi Calm Calm - N/A   Overcast
6:55 AM 61.7 °F 56.3 °F 82% 30.03 in 10.0 mi North 3.5 mph - N/A   Overcast
7:15 AM 60.6 °F 55.2 °F 82% 30.04 in 10.0 mi Calm Calm - N/A   Overcast
7:35 AM 60.3 °F 54.9 °F 82% 30.04 in 10.0 mi North 4.6 mph - N/A   Overcast
7:55 AM 60.3 °F 54.9 °F 82% 30.04 in 10.0 mi NNE 4.6 mph - N/A   Mostly Cloudy
8:15 AM 61.2 °F 54.9 °F 80% 30.04 in 10.0 mi NNE 6.9 mph - N/A   Scattered Clouds
8:35 AM 62.6 °F 54.0 °F 73% 30.05 in 10.0 mi NNE 6.9 mph - N/A   Clear
8:55 AM 62.8 °F 52.5 °F 69% 30.06 in 10.0 mi NE 4.6 mph - N/A   Clear
9:15 AM 64.2 °F 53.4 °F 68% 30.06 in 10.0 mi North 9.2 mph - N/A   Clear
9:35 AM 65.5 °F 52.5 °F 63% 30.06 in 10.0 mi NNE 9.2 mph - N/A   Clear
9:55 AM 68.0 °F 54.1 °F 61% 30.06 in 10.0 mi NE 8.1 mph - N/A   Clear
10:15 AM 68.0 °F 51.6 °F 56% 30.06 in 10.0 mi North 9.2 mph - N/A   Clear
10:35 AM 68.5 °F 51.6 °F 55% 30.06 in 10.0 mi NNE 6.9 mph - N/A   Clear
10:55 AM 70.7 °F 53.2 °F 54% 30.05 in 10.0 mi North 8.1 mph - N/A   Clear
11:15 AM 70.7 °F 51.3 °F 50% 30.05 in 10.0 mi NNW 6.9 mph - N/A   Clear
11:35 AM 70.7 °F 50.5 °F 49% 30.05 in 10.0 mi NNE 6.9 mph - N/A   Clear
11:55 AM 70.7 °F 50.0 °F 48% 30.04 in 10.0 mi NNE 3.5 mph - N/A   Clear
12:15 PM 70.7 °F 49.5 °F 47% 30.03 in 10.0 mi East 3.5 mph - N/A   Clear
12:35 PM 71.8 °F 49.6 °F 45% 30.02 in 10.0 mi Calm Calm - N/A   Clear
12:55 PM 72.7 °F 49.8 °F 44% 30.01 in 10.0 mi North 4.6 mph - N/A   Clear
1:15 PM 73.0 °F 48.2 °F 41% 30.00 in 10.0 mi NNW 3.5 mph - N/A   Clear
1:35 PM 75.6 °F 49.6 °F 40% 29.99 in 10.0 mi Calm Calm - N/A   Clear
1:55 PM 74.7 °F 50.0 °F 42% 29.99 in 10.0 mi SSW 4.6 mph - N/A   Clear
2:15 PM 75.6 °F 50.7 °F 42% 29.98 in 10.0 mi NW 5.8 mph - N/A   Clear
2:35 PM 75.6 °F 48.7 °F 39% 29.97 in 10.0 mi NW 8.1 mph - N/A   Clear
2:55 PM 75.6 °F 49.1 °F 39% 29.98 in 10.0 mi NW 5.8 mph - N/A   Clear
3:15 PM 75.6 °F 49.5 °F 40% 29.97 in 10.0 mi Calm Calm - N/A   Clear
3:35 PM 75.6 °F 50.2 °F 41% 29.97 in 10.0 mi Calm Calm - N/A   Clear
3:55 PM 75.6 °F 53.2 °F 46% 29.98 in 10.0 mi WNW 5.8 mph - N/A   Clear
4:15 PM 72.5 °F 50.4 °F 46% 29.96 in 10.0 mi NW 5.8 mph - N/A   Clear
4:35 PM 70.7 °F 50.9 °F 49% 29.96 in 10.0 mi Calm Calm - N/A   Clear
4:55 PM 70.7 °F 51.4 °F 50% 29.97 in 10.0 mi WNW 3.5 mph - N/A   Clear
5:15 PM 70.7 °F 55.6 °F 59% 29.97 in 10.0 mi WNW 3.5 mph - N/A   Clear
5:35 PM 70.7 °F 56.1 °F 60% 29.97 in 10.0 mi NW 4.6 mph - N/A   Clear
5:55 PM 70.7 °F 56.5 °F 61% 29.97 in 10.0 mi NW 5.8 mph - N/A   Clear
6:15 PM 68.0 °F 55.8 °F 65% 29.98 in 10.0 mi NW 4.6 mph - N/A   Clear
6:35 PM 68.0 °F 55.9 °F 65% 29.97 in 10.0 mi Calm Calm - N/A   Clear
6:55 PM 67.8 °F 55.4 °F 64% 29.97 in 10.0 mi Calm Calm - N/A   Clear
7:15 PM 65.5 °F 54.5 °F 68% 29.96 in 10.0 mi Calm Calm - N/A   Clear
7:35 PM 65.5 °F 54.5 °F 68% 29.96 in 10.0 mi Calm Calm - N/A   Clear
7:55 PM 65.5 °F 55.4 °F 70% 29.97 in 10.0 mi Calm Calm - N/A   Clear
8:15 PM 65.5 °F 55.6 °F 70% 29.98 in 10.0 mi Calm Calm - N/A   Clear
8:35 PM 63.0 °F 55.9 °F 78% 29.99 in 10.0 mi Calm Calm - N/A   Clear
8:55 PM 62.8 °F 56.8 °F 81% 30.00 in 10.0 mi Calm Calm - N/A   Clear
9:15 PM 62.8 °F 56.7 °F 80% 30.01 in 10.0 mi Calm Calm - N/A   Clear
9:35 PM 62.8 °F 56.8 °F 81% 30.01 in 10.0 mi Calm Calm - N/A   Clear
9:55 PM 62.8 °F 57.2 °F 82% 30.01 in 10.0 mi Calm Calm - N/A   Clear
10:15 PM 64.4 °F 54.1 °F 69% 30.00 in 10.0 mi North 5.8 mph - N/A   Clear
10:35 PM 64.6 °F 53.8 °F 68% 30.00 in 10.0 mi Calm Calm - N/A   Clear
10:55 PM 64.0 °F 53.6 °F 69% 30.01 in 10.0 mi Calm Calm - N/A   Clear
11:15 PM 62.8 °F 54.7 °F 75% 30.00 in 10.0 mi Calm Calm - N/A   Clear
11:35 PM 62.8 °F 54.9 °F 75% 30.00 in 10.0 mi Calm Calm - N/A   Clear
11:55 PM 61.7 °F 56.7 °F 84% 30.00 in 10.0 mi Calm Calm - N/A   Scattered Clouds